SPACEBEE-147 (52415 NORAD) Tracking and Keplerian Element Data
This shows tracking and keplerian element data for the satellite.
Feedback or suggestion? Click here.
Element | Value |
Catalog | 52415 |
Name | SPACEBEE-147 |
Epoch Orbit | 1746 |
Epoch Day | 228.70583343 |
Epoch Year | 2022 |
RAAN | 312.2668 |
Inclination | 97.4484 |
Eccentricity | 0.0007866 |
Argument of Perigee | 339.2166 |
Mean Anonmoly | 20.8745 |
Mean Motion | 15.140418 |
Decay Rate | 6.4E-05 |
L1 | 1 52415U 22047X 22228.70583343 .00006400 00000+0 35541-3 0 9991 |
L2 | 2 52415 97.4484 312.2668 0007866 339.2166 20.8745 15.14041800 17468 |
Live tracking and technical data element details for SPACEBEE-147 (NORAD 52415). SPACEBEE-147 can be tracked NOW for your location showing map with azimuth and elevation plus other details from your city location.
Track the satellite on the map from your city or location and see movement details for azimuth, elevation, latitude, longitude, range, height, and movement on the map or in text.
IsCatalogInMostPopularTable: catalog: 52415, numindb: 5
Update: records affected: 1
GetName: 52415 SPACEBEE-147
Hit Count: updated at: Thu, 18 Aug 2022 20:53:15 GMT